Monroe, MI

4:41 PM EDT on April 26, 2017 (GMT -0400)
Custer

Weather History for KTTF - February, 2013

Change the Weather History Date:

Saturday, February 2, 2013

  Actual Average Record
Temperature  
Mean Temperature 20 °F -  
Max Temperature 24 °F 34 °F 50 °F (1973)
Min Temperature 14 °F 17 °F -8 °F (1951)
Degree Days  
Heating Degree Days 46    
Moisture  
Dew Point 15 °F    
Average Humidity 83    
Maximum Humidity 93    
Minimum Humidity 68    
Precipitation  
Precipitation 0.00 in - - ()
Sea Level Pressure  
Sea Level Pressure 30.03 in    
Wind  
Wind Speed 9 mph (WSW)    
Max Wind Speed 12 mph    
Max Gust Speed 18 mph    
Visibility 6 miles    
Events Snow    
Averages and records for this station are not official NWS values.
T = Trace of Precipitation, MM = Missing Value Source: NWS Daily Summary

Daily Weather History Graph

Daily Weather History Graph

Search for Another Location

Airport or City:

Trip Planner

Search our weather history database for the weather conditions in past years. The results will help you decide how hot, cold, wet, or windy it might be!

Date:

Astronomy

Feb. 02, 2013 Rise Set
Actual Time 7:45 AM EST 5:50 PM EST
Civil Twilight 7:15 AM EST 6:19 PM EST
Nautical Twilight 6:42 AM EST 6:53 PM EST
Astronomical Twilight 6:09 AM EST 7:25 PM EST
Moon 12:02 AM EST (2/2) 10:47 AM EST (2/2)
Length of Visible Light 11h 04m
Length of Day
10h 05m
Waning Gibbous, 60% of the Moon is Illuminated
Feb 2
Waning Gibbous
Feb 3
Last Quarter
Feb 10
New
Feb 17
First Quarter
Feb 25
Full

Hourly Weather History & Observations

Time (EST) Temp. Windchill Dew Point Humidity Pressure Visibility Wind Dir Wind Speed Gust Speed Precip Events Conditions
12:11 AM 15.8 °F 2.7 °F 8.6 °F 73% 30.22 in 10.0 mi SW 11.5 mph - N/A   Overcast
12:31 AM 15.8 °F 2.7 °F 8.6 °F 73% 30.21 in 10.0 mi SSW 11.5 mph 18.4 mph N/A   Overcast
12:51 AM 17.6 °F 5.0 °F 8.6 °F 68% 30.20 in 10.0 mi SW 11.5 mph - N/A   Overcast
1:11 AM 17.6 °F 5.0 °F 8.6 °F 68% 30.20 in 10.0 mi SW 11.5 mph 18.4 mph N/A   Overcast
1:31 AM 15.8 °F 2.7 °F 8.6 °F 73% 30.20 in 10.0 mi SW 11.5 mph - N/A   Overcast
1:51 AM 15.8 °F 3.4 °F 8.6 °F 73% 30.19 in 10.0 mi SSW 10.4 mph - N/A   Mostly Cloudy
2:11 AM 15.8 °F 3.4 °F 8.6 °F 73% 30.19 in 10.0 mi SSW 10.4 mph - N/A   Scattered Clouds
2:31 AM 15.8 °F 3.4 °F 8.6 °F 73% 30.19 in 10.0 mi SW 10.4 mph - N/A   Mostly Cloudy
2:51 AM 15.8 °F 3.4 °F 8.6 °F 73% 30.18 in 10.0 mi SSW 10.4 mph - N/A   Overcast
3:11 AM 17.6 °F 5.0 °F 10.4 °F 73% 30.17 in 10.0 mi SW 11.5 mph - N/A   Overcast
3:32 AM 17.6 °F 5.7 °F 10.4 °F 73% 30.15 in 10.0 mi SW 10.4 mph - N/A   Mostly Cloudy
3:52 AM 17.6 °F 5.0 °F 10.4 °F 73% 30.15 in 10.0 mi SW 11.5 mph - N/A   Overcast
4:12 AM 17.6 °F 7.3 °F 10.4 °F 73% 30.15 in 10.0 mi SSW 8.1 mph - N/A   Overcast
4:32 AM 17.6 °F 6.4 °F 10.4 °F 73% 30.14 in 4.0 mi SW 9.2 mph - N/A Snow Light Snow
4:52 AM 17.6 °F 6.4 °F 12.2 °F 79% 30.13 in 2.5 mi SW 9.2 mph - N/A Snow Light Snow
5:12 AM 17.6 °F 7.3 °F 12.2 °F 79% 30.12 in 3.0 mi SSW 8.1 mph - N/A Snow Light Snow
5:32 AM 17.6 °F 6.4 °F 12.2 °F 79% 30.11 in 4.0 mi SSW 9.2 mph - N/A Snow Light Snow
5:52 AM 17.6 °F 6.4 °F 12.2 °F 79% 30.10 in 7.0 mi SSW 9.2 mph - N/A Snow Light Snow
6:13 AM 17.6 °F 9.3 °F 14.0 °F 86% 30.09 in 5.0 mi SSW 5.8 mph - N/A Snow Light Snow
6:33 AM 17.6 °F 5.7 °F 14.0 °F 86% 30.08 in 2.0 mi SSW 10.4 mph - N/A Snow Light Snow
6:53 AM 17.6 °F 6.4 °F 15.8 °F 93% 30.07 in 3.0 mi SSW 9.2 mph - N/A Snow Light Snow
7:13 AM 17.6 °F 6.4 °F 15.8 °F 93% 30.07 in 2.5 mi South 9.2 mph - N/A Snow Light Snow
7:33 AM 17.6 °F 5.7 °F 15.8 °F 93% 30.07 in 1.8 mi SSW 10.4 mph - N/A Snow Light Snow
7:53 AM 17.6 °F 8.2 °F 15.8 °F 93% 30.06 in 0.8 mi SSW 6.9 mph - N/A Snow Snow
8:13 AM 17.6 °F 9.3 °F 15.8 °F 93% 30.06 in 0.2 mi SSW 5.8 mph - N/A Snow Snow
8:33 AM 17.6 °F 9.3 °F 15.8 °F 93% 30.05 in 0.5 mi SSW 5.8 mph - N/A Snow Light Snow
8:53 AM 17.6 °F 8.2 °F 15.8 °F 93% 30.04 in 0.5 mi SSW 6.9 mph - N/A Snow Light Snow
9:13 AM 17.6 °F 7.3 °F 15.8 °F 93% 30.04 in 0.5 mi SSW 8.1 mph - N/A Snow Light Snow
9:34 AM 19.4 °F 9.5 °F 15.8 °F 86% 30.03 in 1.2 mi South 8.1 mph - N/A Snow Light Snow
9:54 AM 19.4 °F 8.6 °F 15.8 °F 86% 30.03 in 4.0 mi SSW 9.2 mph - N/A Snow Light Snow
10:14 AM 19.4 °F 8.6 °F 15.8 °F 86% 30.02 in 7.0 mi SSW 9.2 mph - N/A Snow Light Snow
10:34 AM 19.4 °F 10.4 °F 15.8 °F 86% 30.01 in 10.0 mi SSW 6.9 mph - N/A Snow Light Snow
10:54 AM 19.4 °F 8.6 °F 15.8 °F 86% 30.00 in 7.0 mi SSW 9.2 mph - N/A Snow Light Snow
11:14 AM 21.2 °F 9.5 °F 17.6 °F 86% 30.00 in 4.0 mi SSW 11.5 mph - N/A Snow Light Snow
11:34 AM 21.2 °F 12.6 °F 17.6 °F 86% 29.99 in 3.0 mi SW 6.9 mph - N/A Snow Light Snow
11:54 AM 21.2 °F 11.7 °F 17.6 °F 86% 29.98 in 3.0 mi SSW 8.1 mph - N/A Snow Light Snow
12:15 PM 23.0 °F 14.7 °F 17.6 °F 80% 29.97 in 5.0 mi SW 6.9 mph - N/A Snow Light Snow
12:35 PM 23.0 °F 12.4 °F 17.6 °F 80% 29.95 in 10.0 mi SW 10.4 mph - N/A Snow Light Snow
12:55 PM 23.0 °F 12.4 °F 17.6 °F 80% 29.95 in 10.0 mi WSW 10.4 mph - N/A Snow Light Snow
1:15 PM 23.0 °F 11.7 °F 19.4 °F 86% 29.94 in 7.0 mi WSW 11.5 mph - N/A Snow Light Snow
1:35 PM 23.0 °F 13.1 °F 19.4 °F 86% 29.94 in 5.0 mi WSW 9.2 mph - N/A Snow Light Snow
1:55 PM 24.8 °F 16.1 °F 19.4 °F 80% 29.94 in 1.8 mi WSW 8.1 mph - N/A Snow Light Snow
2:15 PM 24.8 °F 15.3 °F 19.4 °F 80% 29.93 in 1.8 mi WSW 9.2 mph - N/A Snow Light Snow
2:35 PM 24.8 °F 15.3 °F 21.2 °F 86% 29.93 in 1.0 mi WSW 9.2 mph - N/A Snow Light Snow
2:56 PM 24.8 °F 17.9 °F 21.2 °F 86% 29.93 in 3.0 mi WSW 5.8 mph - N/A Snow Light Snow
3:16 PM 24.8 °F 16.1 °F 21.2 °F 86% 29.93 in 5.0 mi WSW 8.1 mph - N/A Snow Light Snow
3:31 PM 24.8 °F 16.9 °F 19.4 °F 80% 29.93 in 7.0 mi SW 6.9 mph - N/A Snow Light Snow
3:51 PM 24.8 °F 16.9 °F 19.4 °F 80% 29.93 in 5.0 mi WSW 6.9 mph - N/A Snow Light Snow
4:11 PM 24.8 °F 16.9 °F 19.4 °F 80% 29.93 in 5.0 mi WSW 6.9 mph - N/A Snow Light Snow
4:31 PM 24.8 °F 16.9 °F 21.2 °F 86% 29.93 in 4.0 mi WSW 6.9 mph - N/A Snow Light Snow
4:51 PM 24.8 °F 20.5 °F 21.2 °F 86% 29.94 in 4.0 mi WSW 3.5 mph - N/A Snow Light Snow
5:11 PM 24.8 °F 20.5 °F 21.2 °F 86% 29.94 in 2.5 mi WSW 3.5 mph - N/A Snow Light Snow
5:31 PM 24.8 °F 19.1 °F 21.2 °F 86% 29.94 in 4.0 mi WSW 4.6 mph - N/A Snow Light Snow
5:51 PM 23.0 °F 17.0 °F 21.2 °F 93% 29.94 in 4.0 mi WSW 4.6 mph - N/A Snow Light Snow
6:11 PM 23.0 °F 17.0 °F 21.2 °F 93% 29.95 in 5.0 mi WSW 4.6 mph - N/A Snow Light Snow
6:31 PM 23.0 °F 13.9 °F 21.2 °F 93% 29.96 in 1.0 mi NNW 8.1 mph - N/A Snow Light Snow
6:51 PM 21.2 °F 10.1 °F 19.4 °F 93% 29.97 in 1.5 mi NNW 10.4 mph 17.3 mph N/A Snow Light Snow
7:12 PM 21.2 °F 12.6 °F 17.6 °F 86% 29.97 in 2.5 mi NNW 6.9 mph - N/A Snow Light Snow
7:32 PM 21.2 °F 13.6 °F 17.6 °F 86% 29.98 in 4.0 mi NNW 5.8 mph - N/A Snow Light Snow
7:52 PM 19.4 °F 12.8 °F 17.6 °F 93% 29.98 in 5.0 mi NNW 4.6 mph - N/A Snow Light Snow
8:12 PM 19.4 °F 11.5 °F 15.8 °F 86% 29.98 in 10.0 mi NNW 5.8 mph - N/A   Overcast
8:32 PM 19.4 °F 11.5 °F 15.8 °F 86% 29.98 in 10.0 mi NNW 5.8 mph - N/A   Overcast
8:52 PM 19.4 °F 12.8 °F 15.8 °F 86% 29.98 in 10.0 mi NNW 4.6 mph - N/A   Overcast
9:12 PM 19.4 °F 11.5 °F 14.0 °F 80% 29.98 in 10.0 mi NNW 5.8 mph - N/A   Overcast
9:32 PM 19.4 °F 10.4 °F 14.0 °F 80% 29.99 in 10.0 mi NNW 6.9 mph - N/A   Overcast
9:53 PM 17.6 °F 7.3 °F 14.0 °F 86% 29.99 in 10.0 mi NNW 8.1 mph - N/A   Overcast
10:13 PM 17.6 °F 5.7 °F 12.2 °F 79% 29.99 in 10.0 mi North 10.4 mph - N/A   Overcast
10:33 PM 17.6 °F 9.3 °F 12.2 °F 79% 30.00 in 10.0 mi NNW 5.8 mph - N/A Snow Light Snow
10:53 PM 17.6 °F 7.3 °F 10.4 °F 73% 30.00 in 10.0 mi North 8.1 mph - N/A   Overcast
11:13 PM 17.6 °F 8.2 °F 10.4 °F 73% 29.99 in 10.0 mi NNW 6.9 mph - N/A   Overcast
11:33 PM 15.8 °F 7.2 °F 10.4 °F 79% 29.99 in 10.0 mi North 5.8 mph - N/A   Overcast
11:53 PM 14.0 °F 5.1 °F 10.4 °F 86% 29.98 in 10.0 mi North 5.8 mph - N/A   Overcast